| time (UTC) | temp F | wind direction | speed MPH | gust MPH | rain 1hr in | rain 24hr in | rain mn in | humidity % | barometer mb |
| 20260504010020 | 87 | 0.0 | 0.0 | 0.00 | 0.00 | 0.00 | 18 | 1005.8 | |
| 20260504004517 | 85 | 0.0 | 3.0 | 0.00 | 0.00 | 0.00 | 20 | 1006.0 | |
| 20260504003011 | 84 | 0.0 | 5.0 | 0.00 | 0.00 | 0.00 | 20 | 1006.2 | |
| 20260504001508 | 83 | 0.0 | 1.0 | 0.00 | 0.00 | 0.00 | 22 | 1006.3 | |
| 20260504000005 | 81 | 4.0 | 8.0 | 0.00 | 0.00 | 0.00 | 21 | 1006.5 | |
| 20260503234503 | 84 | 0.0 | 5.0 | 0.00 | 0.00 | 0.00 | 20 | 1006.6 | |
| 20260503233107 | 85 | 0.0 | 3.0 | 0.00 | 0.00 | 0.00 | 22 | 1006.7 | |
| 20260503231557 | 84 | 0.0 | 4.0 | 0.00 | 0.00 | 0.00 | 20 | 1007.1 | |
| 20260503230112 | 85 | 0.0 | 4.0 | 0.00 | 0.00 | 0.00 | 21 | 1007.4 | |
| 20260503224553 | 84 | 0.0 | 4.0 | 0.00 | 0.00 | 0.00 | 20 | 1007.6 | |
| 20260503223048 | 84 | 0.0 | 5.0 | 0.00 | 0.00 | 0.00 | 21 | 1007.8 | |
| 20260503221543 | 83 | 1.0 | 7.0 | 0.00 | 0.00 | 0.00 | 21 | 1008.1 | |
| 20260503220046 | 83 | 5.0 | 11.0 | 0.00 | 0.00 | 0.00 | 21 | 1008.4 | |
| 20260503214540 | 82 | 1.0 | 7.0 | 0.00 | 0.00 | 0.00 | 22 | 1008.6 | |
| 20260503213036 | 80 | 6.0 | 11.0 | 0.00 | 0.00 | 0.00 | 20 | 1008.7 | |
| 20260503211534 | 80 | 6.0 | 11.0 | 0.00 | 0.00 | 0.00 | 21 | 1008.8 | |
| 20260503210029 | 80 | 2.0 | 6.0 | 0.00 | 0.00 | 0.00 | 21 | 1009.1 | |
| 20260503204526 | 80 | 6.0 | 8.0 | 0.00 | 0.00 | 0.00 | 21 | 1009.4 | |
| 20260503203042 | 79 | 2.0 | 10.0 | 0.00 | 0.00 | 0.00 | 22 | 1009.8 | |
| 20260503201523 | 79 | 4.0 | 6.0 | 0.00 | 0.00 | 0.00 | 22 | 1010.0 | |
| 20260503200019 | 78 | 2.0 | 15.0 | 0.00 | 0.00 | 0.00 | 25 | 1010.3 | |
| 20260503194531 | 77 | 6.0 | 12.0 | 0.00 | 0.00 | 0.00 | 26 | 1010.6 | |
| 20260503193014 | 76 | 7.0 | 12.0 | 0.00 | 0.00 | 0.00 | 31 | 1010.7 | |
| 20260503191510 | 76 | 2.0 | 12.0 | 0.00 | 0.00 | 0.00 | 27 | 1011.1 | |
| 20260503190007 | 74 | 4.0 | 10.0 | 0.00 | 0.00 | 0.00 | 28 | 1011.2 | |
| 20260503184504 | 74 | 5.0 | 9.0 | 0.00 | 0.00 | 0.00 | 33 | 1011.4 | |
| 20260503183002 | 73 | 5.0 | 8.0 | 0.00 | 0.00 | 0.00 | 34 | 1011.6 | |
| 20260503181605 | 72 | 3.0 | 6.0 | 0.00 | 0.00 | 0.00 | 37 | 1011.7 | |
| 20260503180056 | 71 | 0.0 | 9.0 | 0.00 | 0.00 | 0.00 | 38 | 1012.0 | |
| 20260503174553 | 70 | 1.0 | 5.0 | 0.00 | 0.00 | 0.00 | 38 | 1012.1 | |
| 20260503173050 | 69 | 3.0 | 5.0 | 0.00 | 0.00 | 0.00 | 40 | 1012.3 | |
| 20260503171548 | 67 | 4.0 | 7.0 | 0.00 | 0.00 | 0.00 | 41 | 1012.4 | |
| 20260503081558 | 62 | 3.0 | 6.0 | 0.00 | 0.00 | 0.00 | 44 | 1012.6 | |
| 20260503071543 | 65 | 2.0 | 7.0 | 0.00 | 0.00 | 0.00 | 40 | 1012.4 | |
| 20260503060106 | 64 | 0.0 | 0.0 | 0.00 | 0.00 | 0.00 | 42 | 1012.0 | |
| 20260503054553 | 65 | 1.0 | 4.0 | 0.00 | 0.00 | 0.00 | 42 | 1011.9 | |
| 20260503053041 | 65 | 4.0 | 5.0 | 0.00 | 0.00 | 0.00 | 42 | 1011.9 | |
| 20260503051536 | 65 | 1.0 | 4.0 | 0.00 | 0.00 | 0.00 | 40 | 1011.9 | |
| 20260503050035 | 66 | 4.0 | 6.0 | 0.00 | 0.00 | 0.00 | 40 | 1011.6 | |
| 20260503044534 | 66 | 5.0 | 6.0 | 0.00 | 0.00 | 0.00 | 42 | 1011.6 | |
| 20260503043036 | 67 | 5.0 | 7.0 | 0.00 | 0.00 | 0.00 | 40 | 1011.5 | |
| 20260503041534 | 68 | 4.0 | 5.0 | 0.00 | 0.00 | 0.00 | 38 | 1011.4 | |
| 20260503040037 | 72 | 4.0 | 9.0 | 0.00 | 0.00 | 0.00 | 33 | 1011.3 | |
| 20260503034532 | 72 | 3.0 | 7.0 | 0.00 | 0.00 | 0.00 | 33 | 1011.1 | |
| 20260503033033 | 73 | 3.0 | 6.0 | 0.00 | 0.00 | 0.00 | 32 | 1010.9 | |
| 20260503031532 | 71 | 0.0 | 0.0 | 0.00 | 0.00 | 0.00 | 34 | 1010.7 | |
| 20260503030030 | 73 | 0.0 | 0.0 | 0.00 | 0.00 | 0.00 | 33 | 1010.6 | |
| 20260503024530 | 74 | 2.0 | 6.0 | 0.00 | 0.00 | 0.00 | 31 | 1010.5 | |
| 20260503023030 | 75 | 5.0 | 7.0 | 0.00 | 0.00 | 0.00 | 30 | 1010.4 | |
| 20260503021529 | 76 | 0.0 | 0.0 | 0.00 | 0.00 | 0.00 | 28 | 1010.5 | |
| 20260503020028 | 78 | 0.0 | 3.0 | 0.00 | 0.00 | 0.00 | 27 | 1010.4 | |
| 20260503014527 | 77 | 4.0 | 7.0 | 0.00 | 0.00 | 0.00 | 27 | 1010.6 | |
| 20260503013026 | 78 | 7.0 | 9.0 | 0.00 | 0.00 | 0.00 | 27 | 1010.7 | |
| 20260503011524 | 78 | 6.0 | 8.0 | 0.00 | 0.00 | 0.00 | 27 | 1010.6 |